Temp
63 63 62 62 62 62 62 63 63 63 63 63 63 63 63 63 64 73 76 85 83 82 85 87 87 87 84 79 83 84 65 62 67 69 72 80 77 81 83 79 83 82 77 78 79
62 62 63 62 62 62 61 62 63 63 63 63 63 63 63 64 63 70 83 84 84 84 87 85 82 84 77 77 80 74 63 68 77 77 76 80 79 78 76 77 77 76 80 80 78
62 62 62 62 62 62 61 62 62 62 62 62 63 63 63 62 68 79 86 83 83 86 88 84 85 81 73 75 78 76 69 77 81 82 83 79 78 80 74 71 76 72 75 77 76
62 62 62 62 62 61 61 61 62 62 62 62 63 64 64 61 64 85 84 82 82 87 88 84 82 78 72 71 81 77 83 83 82 83 82 78 80 78 78 78 82 79 79 78 76
62 61 61 62 61 61 60 60 61 61 61 62 63 64 63 64 73 89 86 88 88 87 86 83 78 75 72 78 82 79 82 84 83 83 81 83 78 78 77 83 83 82 80 77 78
61 61 61 61 61 60 60 60 60 61 61 62 64 65 62 62 87 87 88 89 87 84 85 85 82 83 76 76 76 83 83 84 83 81 82 79 77 79 79 84 80 79 78 78 78
60 60 60 60 60 60 60 59 60 60 61 62 64 67 63 72 87 87 82 82 86 86 83 87 87 80 81 78 83 83 78 79 81 80 79 81 73 73 80 82 79 78 78 79 79
60 60 60 60 60 59 58 58 59 60 62 63 65 60 62 84 82 85 83 87 89 87 86 89 88 82 77 82 81 78 75 67 78 79 80 79 65 76 81 80 78 79 78 78 78
60 60 60 60 59 58 57 58 60 62 64 65 55 55 65 83 80 88 86 85 89 85 84 97 85 75 77 69 66 70 63 67 74 81 78 75 67 76 80 80 77 79 80 80 79
60 59 59 59 58 57 56 58 60 61 65 70 72 60 70 74 81 87 86 89 84 86 85 82 75 69 65 65 58 64 64 70 70 78 78 72 72 74 79 79 77 78 79 80 80
60 59 59 58 58 56 53 57 60 58 57 64 64 69 75 80 83 85 87 86 81 79 68 73 67 64 68 68 69 68 64 67 72 80 76 72 69 72 77 78 77 76 78 79 80
59 59 59 58 57 56 49 56 64 67 60 69 72 72 76 76 74 80 85 79 74 68 70 68 63 73 76 75 70 70 69 67 74 78 74 69 69 71 76 77 78 78 78 79 79
59 58 58 57 56 51 51 61 68 70 56 68 69 71 74 77 74 76 84 77 72 67 67 64 72 79 76 73 70 65 63 67 69 72 74 69 64 68 73 74 78 80 80 80 78
59 58 57 56 51 52 59 66 67 71 52 64 66 76 76 78 73 86 84 80 72 71 70 68 77 77 73 71 72 57 75 74 73 65 60 67 55 62 67 68 71 75 78 77 78
58 57 56 56 48 55 68 61 62 66 44 70 67 81 73 74 72 78 84 79 72 73 71 69 72 71 71 75 76 72 77 73 71 62 58 61 57 56 63 64 66 69 73 75 78
58 57 56 51 52 53 59 61 66 55 48 65 73 71 69 67 72 78 78 81 79 73 70 72 78 75 74 79 77 76 73 66 59 56 52 55 57 55 56 62 66 71 73 75 75
56 55 54 58 58 60 61 64 53 47 67 65 64 67 64 63 68 73 69 66 65 59 56 68 71 74 79 68 73 69 59 51 51 49 50 51 55 55 64 67 69 68 71 73 73
54 53 53 55 53 56 64 61 44 62 61 67 69 66 65 67 66 67 66 65 64 64 58 56 60 69 76 75 69 61 60 52 45 46 51 56 51 58 69 69 69 71 71 74 74
52 48 47 52 55 55 62 50 52 58 69 67 66 62 58 67 67 64 64 64 68 68 61 55 62 74 77 75 76 61 58 61 52 47 50 52 58 63 67 68 71 70 72 71 73
49 52 57 60 61 62 58 50 57 67 73 69 62 64 59 61 65 62 62 71 71 72 68 61 58 67 75 76 73 66 69 58 52 46 43 49 51 53 60 65 69 69 70 71 73
52 57 65 61 64 61 52 51 63 73 73 65 64 63 62 63 65 62 64 70 76 70 71 64 60 67 69 65 62 65 60 56 55 51 46 44 50 60 63 66 67 68 71 70 71
48 56 65 64 59 48 51 58 64 71 74 73 69 69 67 68 65 64 66 70 77 74 69 67 58 55 60 68 71 65 60 56 52 50 46 48 53 64 67 67 69 71 72 69 71
48 51 67 67 53 51 56 64 70 71 70 70 71 73 72 67 62 65 69 76 77 75 70 68 56 52 58 63 66 64 61 54 53 50 49 49 53 67 67 64 67 68 69 67 68
50 56 59 60 54 56 59 63 65 76 74 74 72 72 67 62 61 66 71 76 76 73 71 68 54 56 53 56 60 59 62 59 55 50 48 51 52 59 63 65 66 67 67 67 66
50 55 57 54 58 56 61 66 66 65 72 71 73 72 66 61 59 64 68 68 76 72 69 67 57 56 56 63 64 63 62 62 57 55 53 55 55 56 60 62 63 66 68 68 68
52 53 56 54 56 56 53 60 67 69 69 70 67 71 71 64 67 65 68 62 65 71 63 62 58 55 58 65 66 60 62 63 62 61 59 59 58 63 64 67 67 67 69 69 68
52 56 55 53 56 55 57 64 68 68 74 76 76 72 73 72 71 69 67 67 71 68 62 60 57 53 49 57 59 53 57 59 59 60 61 54 58 64 64 65 64 64 66 66 67
MSLP
1015.52 1015.11 1014.83 1014.54 1014.25 1014.01 1013.73 1013.36 1013.19 1013.03 1012.74 1012.28 1011.86 1011.50 1010.83 1010.05 1008.71 1007.69 1006.69 1005.37 1005.16 1005.10 1005.13 1005.74 1006.06 1006.06 1006.15 1006.05 1006.06 1006.21 1007.07 1007.13 1006.54 1006.11 1005.71 1005.53 1005.88 1006.31 1006.34 1006.89 1007.22 1007.82 1008.54 1009.34 1010.76
1015.49 1015.11 1014.69 1014.37 1014.10 1013.82 1013.67 1013.37 1013.13 1012.87 1012.55 1012.21 1011.72 1011.29 1010.98 1010.51 1009.46 1006.91 1003.72 1004.15 1004.18 1004.52 1004.72 1005.13 1005.49 1005.50 1005.64 1005.55 1005.59 1005.96 1006.58 1005.86 1005.17 1005.00 1004.90 1005.11 1005.72 1005.97 1006.54 1007.06 1007.69 1008.22 1008.82 1009.76 1010.71
1015.46 1015.09 1014.68 1014.24 1013.88 1013.62 1013.41 1013.18 1012.98 1012.77 1012.55 1012.19 1011.62 1011.20 1010.80 1010.39 1009.20 1005.08 1003.05 1003.51 1003.86 1004.08 1004.62 1004.79 1004.69 1004.62 1004.78 1004.76 1004.64 1004.94 1004.96 1004.50 1004.12 1004.22 1004.29 1004.95 1005.53 1005.96 1006.40 1007.11 1007.43 1008.18 1009.03 1010.04 1010.95
1015.39 1015.06 1014.67 1014.24 1013.87 1013.52 1013.31 1013.05 1012.82 1012.62 1012.35 1012.04 1011.59 1011.16 1010.65 1010.20 1007.85 1003.67 1003.23 1003.51 1003.60 1003.88 1004.35 1004.49 1004.55 1004.55 1004.60 1004.27 1003.65 1003.69 1003.59 1003.33 1003.49 1003.91 1004.12 1004.88 1005.27 1005.83 1005.73 1006.03 1006.77 1007.70 1008.36 1009.67 1010.62
1015.30 1014.95 1014.56 1014.16 1013.82 1013.51 1013.23 1013.04 1012.80 1012.62 1012.38 1012.08 1011.78 1011.34 1010.49 1009.51 1006.37 1003.37 1003.32 1003.38 1003.58 1003.80 1004.13 1004.32 1004.39 1004.57 1004.37 1003.96 1003.15 1002.77 1002.84 1003.00 1002.99 1003.67 1004.25 1004.76 1005.17 1005.50 1006.05 1006.17 1007.09 1008.08 1008.62 1009.17 1009.86
1015.22 1014.81 1014.40 1014.03 1013.65 1013.38 1013.14 1012.91 1012.73 1012.57 1012.37 1012.13 1011.78 1011.36 1010.72 1008.65 1004.12 1003.59 1003.65 1003.57 1003.63 1003.69 1003.84 1004.03 1004.13 1004.28 1004.29 1003.97 1003.28 1002.78 1002.61 1002.81 1003.22 1003.86 1004.27 1004.69 1005.38 1005.52 1006.18 1006.48 1007.36 1008.34 1008.66 1008.84 1009.31
1015.05 1014.64 1014.22 1013.83 1013.45 1013.16 1012.93 1012.73 1012.47 1012.28 1012.17 1011.97 1011.63 1011.29 1010.34 1006.26 1003.97 1003.69 1004.04 1003.75 1003.42 1003.37 1003.75 1003.35 1003.80 1004.24 1003.76 1003.36 1002.77 1002.41 1002.93 1003.00 1003.63 1003.77 1004.24 1004.71 1005.64 1005.66 1006.04 1006.72 1007.23 1008.20 1008.66 1009.02 1008.88
1014.90 1014.48 1014.06 1013.59 1013.21 1012.94 1012.74 1012.45 1012.14 1011.95 1011.85 1011.73 1011.60 1011.28 1009.02 1004.91 1004.31 1003.88 1003.45 1003.33 1003.03 1002.95 1003.24 1003.04 1003.24 1003.66 1003.87 1003.35 1002.81 1003.02 1003.38 1003.53 1003.09 1003.80 1004.11 1004.55 1005.17 1005.57 1006.07 1006.56 1007.23 1007.89 1008.46 1008.62 1008.77
1014.72 1014.31 1013.88 1013.42 1013.03 1012.73 1012.44 1012.05 1011.65 1011.45 1011.49 1011.52 1011.57 1011.01 1007.86 1004.57 1004.30 1002.92 1003.23 1003.46 1002.82 1002.58 1002.80 1002.63 1002.90 1003.83 1003.93 1004.20 1004.18 1004.08 1003.99 1003.75 1003.21 1003.02 1003.97 1004.68 1005.09 1005.15 1005.82 1006.45 1006.97 1007.38 1007.86 1007.90 1008.05
1014.56 1014.11 1013.65 1013.24 1012.93 1012.59 1012.03 1011.50 1011.22 1011.14 1011.10 1011.20 1010.80 1010.53 1006.74 1004.74 1003.75 1002.95 1002.99 1002.95 1003.03 1003.09 1003.02 1003.38 1003.97 1004.49 1005.10 1005.20 1005.36 1005.03 1004.69 1003.86 1003.27 1003.02 1003.87 1004.50 1004.71 1005.02 1005.55 1006.05 1006.26 1006.82 1007.25 1007.43 1007.36
1014.36 1013.89 1013.44 1013.08 1012.82 1012.53 1011.77 1011.18 1011.60 1011.24 1010.58 1009.09 1008.44 1007.49 1005.83 1004.67 1003.62 1002.78 1002.39 1002.81 1003.32 1003.90 1004.41 1004.61 1005.28 1005.09 1005.06 1005.17 1005.16 1005.00 1004.24 1003.59 1002.78 1002.59 1003.05 1003.66 1004.87 1005.13 1005.52 1006.24 1006.52 1006.67 1006.92 1007.09 1006.98
1014.19 1013.71 1013.22 1012.90 1012.68 1012.54 1012.48 1011.35 1009.70 1009.13 1008.97 1007.58 1007.28 1006.74 1005.65 1005.05 1004.33 1003.18 1002.70 1003.32 1003.67 1004.40 1004.85 1005.48 1005.17 1004.43 1004.63 1004.41 1004.68 1004.15 1003.86 1003.15 1002.66 1002.57 1003.14 1003.91 1005.45 1005.23 1005.54 1005.64 1005.75 1006.02 1006.44 1006.71 1007.23
1013.98 1013.50 1013.02 1012.71 1012.52 1012.59 1012.07 1010.38 1009.05 1008.52 1008.76 1006.62 1005.99 1005.50 1004.91 1004.76 1003.98 1003.09 1002.85 1003.24 1003.81 1004.50 1005.15 1005.47 1004.40 1004.05 1004.17 1003.70 1004.08 1003.72 1003.16 1002.95 1003.15 1003.38 1003.86 1004.72 1005.59 1005.80 1006.03 1005.95 1005.86 1006.06 1006.28 1006.88 1006.87
1013.67 1013.28 1012.89 1012.49 1012.86 1012.17 1010.76 1008.85 1008.57 1008.86 1008.82 1006.22 1005.10 1003.64 1003.81 1003.69 1003.26 1002.27 1002.42 1003.01 1003.74 1004.25 1004.88 1004.78 1003.87 1003.88 1003.83 1003.71 1003.45 1003.14 1002.72 1003.02 1003.58 1004.35 1005.18 1005.54 1006.87 1006.99 1006.94 1006.73 1006.45 1006.22 1006.09 1006.29 1006.28
1013.34 1012.98 1012.80 1012.81 1013.06 1011.69 1009.24 1008.91 1008.69 1008.75 1007.72 1004.87 1003.95 1002.65 1002.90 1003.26 1002.85 1002.13 1002.24 1002.70 1003.52 1004.09 1004.68 1004.46 1004.01 1003.89 1003.62 1002.84 1002.44 1002.68 1002.76 1003.75 1004.30 1005.51 1006.20 1006.80 1007.60 1008.51 1007.87 1007.67 1007.04 1006.66 1006.59 1006.73 1006.45
1012.79 1012.57 1012.43 1012.53 1012.61 1009.99 1009.06 1009.06 1008.87 1008.81 1006.41 1004.21 1003.11 1002.95 1003.19 1003.15 1002.88 1002.43 1002.43 1002.71 1003.49 1004.15 1004.49 1004.41 1003.63 1003.58 1002.71 1001.94 1002.15 1002.68 1003.46 1004.80 1006.10 1007.00 1007.89 1008.59 1008.80 1009.51 1009.17 1008.39 1007.44 1007.30 1006.88 1007.00 1007.71
1012.08 1011.96 1012.19 1011.62 1010.40 1009.15 1008.94 1008.85 1009.19 1007.76 1005.15 1004.01 1003.27 1003.08 1003.32 1003.48 1003.22 1003.02 1003.25 1003.62 1004.28 1004.93 1005.44 1004.55 1003.29 1002.31 1001.86 1002.16 1002.46 1003.33 1004.98 1006.63 1007.96 1009.09 1009.58 1009.16 1009.53 1009.73 1008.88 1008.58 1008.02 1008.19 1007.88 1007.50 1007.79
1010.91 1010.71 1010.66 1010.10 1009.38 1009.40 1008.76 1008.93 1008.80 1006.42 1004.79 1003.27 1003.05 1003.42 1003.66 1003.63 1003.42 1003.42 1003.73 1004.29 1004.64 1005.11 1005.81 1005.18 1003.64 1002.29 1001.60 1001.80 1002.51 1003.80 1005.26 1007.13 1008.91 1010.40 1010.17 1009.32 1009.56 1009.29 1008.84 1009.10 1008.86 1008.28 1008.57 1007.97 1008.03
1010.15 1010.36 1010.28 1008.32 1009.06 1009.68 1009.16 1009.38 1007.78 1005.92 1004.26 1003.35 1003.23 1003.68 1003.80 1003.48 1003.57 1003.57 1003.88 1004.40 1004.45 1004.78 1005.36 1005.12 1003.80 1002.22 1001.58 1001.60 1002.06 1004.11 1005.47 1006.46 1008.76 1010.65 1011.02 1010.61 1009.74 1009.60 1009.29 1009.12 1008.46 1007.95 1007.78 1008.09 1007.82
1010.38 1009.91 1008.59 1007.28 1008.17 1008.92 1009.10 1008.79 1007.15 1005.28 1003.88 1003.19 1003.20 1003.25 1003.72 1003.56 1003.76 1003.77 1004.16 1003.43 1003.81 1003.83 1004.02 1004.76 1004.43 1002.96 1001.92 1001.75 1002.66 1003.35 1005.07 1006.90 1008.88 1010.82 1011.63 1011.33 1010.60 1009.66 1009.55 1009.08 1009.03 1007.65 1007.89 1008.20 1008.27
1010.36 1009.55 1007.40 1007.02 1007.55 1008.58 1009.31 1008.46 1006.53 1004.54 1003.71 1003.35 1003.01 1003.08 1003.24 1003.28 1003.40 1003.67 1003.67 1002.85 1002.61 1003.48 1003.86 1004.68 1005.01 1003.99 1003.18 1003.43 1003.68 1004.43 1005.48 1007.43 1009.07 1010.51 1011.55 1011.68 1010.51 1008.74 1008.79 1008.37 1008.28 1008.13 1008.38 1008.54 1007.96
1010.91 1009.44 1007.38 1007.63 1008.19 1009.30 1009.02 1007.63 1005.94 1004.15 1003.43 1003.12 1002.46 1002.35 1002.42 1002.50 1003.11 1003.55 1003.12 1002.14 1001.54 1002.58 1003.86 1004.22 1005.33 1005.60 1004.74 1004.47 1004.30 1004.84 1006.06 1007.43 1009.48 1010.97 1011.55 1011.32 1009.95 1008.63 1008.28 1008.35 1008.09 1008.66 1009.25 1008.49 1009.19
1011.78 1010.03 1007.74 1007.59 1008.52 1009.11 1008.20 1007.01 1005.66 1004.04 1002.73 1002.03 1001.42 1000.85 1000.88 1001.80 1002.44 1002.46 1002.01 1001.44 1001.46 1001.96 1002.70 1004.06 1005.55 1006.26 1005.88 1005.67 1005.22 1005.91 1006.68 1007.69 1008.81 1010.07 1011.07 1011.20 1010.11 1008.98 1008.55 1008.62 1008.69 1008.89 1009.32 1009.58 1010.39
1011.90 1010.54 1009.10 1008.36 1008.48 1008.25 1007.90 1006.51 1005.14 1003.21 1002.07 1001.27 1000.30 999.91 1000.39 1000.98 1001.43 1001.64 1001.74 1001.24 1001.27 1001.88 1002.37 1003.48 1005.97 1006.41 1006.59 1006.27 1006.29 1006.78 1007.18 1007.73 1008.57 1010.10 1011.03 1010.66 1010.18 1010.02 1009.42 1009.15 1009.22 1009.53 1009.87 1010.32 1010.80
1011.91 1010.82 1009.66 1009.12 1008.66 1008.22 1007.45 1006.24 1005.16 1004.16 1001.62 1000.73 999.97 999.63 999.48 1000.29 1000.97 1001.44 1001.68 1001.61 1001.58 1002.09 1002.75 1003.78 1006.33 1006.58 1006.89 1006.53 1006.58 1007.21 1007.80 1008.16 1008.66 1009.26 1009.87 1010.27 1010.49 1010.45 1010.25 1010.34 1010.30 1010.31 1010.72 1011.09 1011.65
1012.00 1011.26 1009.92 1009.27 1008.57 1008.02 1007.00 1005.94 1004.68 1003.37 1002.31 1000.54 999.80 999.52 999.09 999.83 1000.31 1001.25 1001.57 1001.89 1002.37 1002.92 1003.80 1005.17 1007.21 1007.52 1007.95 1007.42 1007.35 1008.05 1008.37 1008.65 1008.92 1009.47 1009.74 1010.32 1010.70 1010.72 1010.71 1010.43 1010.84 1011.03 1011.11 1011.73 1012.33
1012.13 1011.14 1010.72 1009.47 1008.63 1007.86 1007.18 1005.74 1004.16 1003.28 1001.33 1000.49 999.81 999.17 999.75 1000.06 1000.52 1000.98 1001.17 1001.63 1002.24 1003.33 1004.87 1006.06 1007.64 1009.04 1009.38 1008.73 1008.52 1009.12 1009.69 1009.67 1009.82 1009.79 1010.01 1010.86 1011.38 1011.54 1011.78 1012.07 1012.45 1012.78 1012.61 1013.05 1013.13
Wind_Speed
14 14 14 15 15 15 16 16 15 15 15 16 17 16 17 19 20 3 9 10 7 7 6 4 8 8 5 6 4 3 4 2 4 5 3 7 4 2 2 10 2 6 7 13 18
14 14 15 15 15 16 15 15 15 15 15 16 17 17 15 16 5 9 10 10 15 6 2 5 2 6 4 5 6 5 4 9 7 6 5 7 5 7 4 6 4 11 17 19 21
14 15 15 15 16 16 16 15 15 15 15 16 17 17 16 12 5 11 4 11 4 5 5 1 5 3 1 3 5 8 7 6 6 5 5 7 5 4 10 2 5 18 21 19 19
14 15 15 15 15 16 15 15 15 14 15 15 16 17 19 2 5 5 10 10 7 6 4 1 3 7 4 2 6 7 8 8 6 5 6 7 8 5 5 6 13 20 23 20 20
15 15 15 15 15 15 15 14 14 14 14 14 15 15 6 2 11 7 9 6 2 1 4 2 3 2 4 7 7 6 5 7 8 8 5 8 4 5 4 10 14 17 20 22 19
15 16 15 16 15 15 14 14 13 13 12 12 13 14 2 4 7 1 9 8 1 2 4 5 4 4 5 5 1 3 4 6 7 7 4 6 2 3 4 14 17 18 18 20 20
16 15 16 16 16 15 14 14 14 13 12 10 11 4 2 17 5 11 5 3 3 4 4 4 5 3 5 8 1 3 6 2 6 8 6 7 3 5 13 15 19 18 16 16 19
16 16 16 16 16 15 14 14 14 12 10 8 6 2 9 6 7 12 1 6 6 6 5 9 7 6 4 4 8 5 5 4 5 10 3 10 8 5 16 19 17 17 15 17 17
16 16 16 16 16 15 15 15 15 12 8 5 0 2 12 10 4 9 6 5 5 3 4 5 2 0 5 4 6 7 3 3 3 10 7 5 4 7 17 17 17 16 15 16 16
17 17 17 16 15 15 17 16 7 8 3 4 4 3 6 3 6 5 6 4 2 6 8 9 6 3 5 5 2 5 5 4 7 6 8 7 6 10 18 18 18 16 15 14 14
17 17 16 16 14 12 10 3 4 3 1 11 6 4 5 7 4 4 3 4 3 7 3 5 5 6 7 5 2 5 5 10 4 5 6 7 3 11 16 12 12 13 14 15 15
17 17 16 16 12 11 3 3 4 4 7 12 10 8 6 3 4 5 4 4 3 2 2 7 6 8 5 6 3 5 7 2 3 1 4 1 7 3 14 16 16 16 15 15 7
17 15 16 15 13 4 1 7 4 6 1 8 7 7 6 7 6 7 9 5 3 3 3 5 9 7 4 12 4 4 3 2 4 2 6 3 5 4 4 2 8 13 9 6 9
18 15 17 16 3 3 4 6 6 4 5 7 5 8 5 6 5 6 6 6 2 7 5 5 7 6 8 8 6 1 4 0 3 5 2 3 5 4 6 6 7 6 12 10 10
17 14 11 7 5 3 3 6 1 4 2 3 4 1 2 8 2 4 3 4 5 4 7 8 5 4 5 8 5 7 3 2 1 4 3 1 6 5 1 7 5 3 4 6 9
18 12 8 1 3 9 7 7 4 7 5 2 6 7 5 1 2 2 3 5 3 4 0 8 5 4 9 4 2 2 5 6 5 3 4 7 4 7 2 6 3 5 2 2 5
18 9 4 2 5 3 4 3 6 3 5 4 5 5 4 4 2 4 3 4 5 5 3 7 7 4 5 2 4 7 7 4 7 7 4 4 4 7 4 5 4 2 8 2 4
23 8 7 7 4 6 2 7 2 4 6 2 6 4 6 6 5 3 7 6 0 5 2 1 9 3 3 8 8 3 8 7 3 3 4 5 1 6 4 0 1 4 4 5 8
13 2 2 6 13 2 6 3 7 6 4 3 5 5 3 4 3 3 6 8 8 9 8 5 7 5 6 2 9 2 2 4 9 3 3 4 5 2 3 4 6 7 11 10 12
3 2 4 6 13 4 6 5 5 4 6 4 7 4 8 4 5 5 6 6 6 11 6 3 3 3 5 3 5 5 6 3 4 4 3 5 6 6 7 6 6 10 11 8 4
2 3 3 5 3 6 4 8 6 8 1 2 5 6 7 7 9 7 10 6 11 4 8 6 4 10 4 5 3 5 4 6 7 4 6 2 8 6 8 8 8 10 13 6 4
3 2 2 1 5 2 3 6 5 7 5 12 6 8 9 9 8 7 11 8 6 11 10 7 6 2 2 3 4 4 4 5 7 1 2 4 6 6 7 6 6 7 3 6 5
2 3 3 3 3 2 5 5 6 10 7 3 8 10 8 10 4 7 7 3 7 10 12 8 0 3 9 8 5 7 3 5 5 4 2 6 6 5 5 1 7 6 6 5 4
1 3 4 4 1 5 1 7 6 6 10 6 5 2 4 3 2 8 7 2 3 4 8 10 4 7 8 6 4 5 1 3 5 5 3 5 2 6 4 7 7 7 8 7 5
1 1 2 4 5 4 3 5 11 7 5 3 2 3 2 5 3 5 3 2 6 2 5 7 4 4 2 1 2 5 3 3 5 5 5 4 6 2 3 5 3 6 6 7 6
2 3 5 2 2 4 6 5 5 5 6 9 1 1 6 5 7 7 9 3 4 6 5 4 2 4 6 6 7 5 11 5 5 5 8 8 6 4 7 12 15 11 10 9 5
3 3 2 3 4 3 6 5 4 3 8 7 7 7 12 5 4 5 5 6 8 7 4 5 7 4 1 5 4 7 7 4 5 5 6 5 3 5 10 12 7 6 8 6 5
Wind_Direction
336 331 327 321 317 314 314 317 321 323 325 325 324 327 327 327 316 273 257 211 187 161 156 164 209 202 168 224 178 126 50 257 250 176 180 165 133 85 230 135 175 156 137 143 141
336 332 327 322 317 313 312 314 318 322 325 324 322 328 326 331 313 279 237 204 227 144 319 353 246 214 183 203 182 135 144 222 218 157 176 154 158 138 120 157 59 87 112 133 143
336 331 328 322 319 314 313 314 318 320 322 322 323 326 323 327 330 251 324 221 227 159 156 157 261 340 42 182 199 172 201 212 217 166 150 134 116 134 118 222 176 147 147 148 150
333 332 328 323 319 315 312 312 315 318 320 322 325 326 320 314 253 261 15 54 101 143 118 258 341 346 306 335 230 140 217 165 196 176 151 154 126 110 196 193 146 155 155 156 163
335 332 328 323 320 314 310 309 312 314 315 318 322 327 341 350 253 288 344 37 36 182 182 211 355 317 323 314 310 169 174 176 173 170 101 127 146 183 196 143 140 157 160 168 175
336 333 329 325 320 315 310 308 310 309 309 314 321 322 346 270 253 265 25 340 352 307 285 144 220 227 253 256 106 278 199 164 140 167 154 126 174 135 133 146 142 166 182 175 182
336 333 329 326 322 316 310 307 307 304 304 311 320 321 311 238 306 317 318 276 227 197 267 246 150 106 300 298 164 251 151 2 143 182 172 106 309 227 155 157 154 175 188 191 194
335 333 330 327 323 317 310 307 299 294 292 296 311 327 249 259 305 301 351 306 261 236 198 280 191 203 186 294 353 110 65 146 246 157 203 130 257 211 165 161 174 178 195 200 207
335 334 331 327 325 319 310 300 291 286 273 260 14 177 265 309 270 271 151 235 297 331 242 248 81 230 18 50 10 4 247 202 261 176 148 186 243 178 170 172 180 189 199 202 207
336 335 332 328 327 320 310 290 280 302 191 203 259 337 273 233 273 274 187 177 22 344 1 34 38 19 40 68 240 279 326 265 192 216 169 192 238 173 178 178 188 189 201 213 216
336 335 331 328 326 326 343 58 25 357 259 195 202 238 292 307 281 288 348 39 83 58 29 354 22 263 270 215 211 252 222 231 231 202 142 218 82 190 187 192 197 199 205 211 221
335 334 331 326 322 321 304 182 203 207 298 228 233 265 271 224 308 293 112 147 103 187 53 5 272 276 246 264 290 268 250 324 28 106 112 155 135 136 191 205 203 200 208 210 205
333 328 331 326 319 323 290 243 272 29 64 290 190 205 210 156 223 248 139 159 139 177 144 178 251 307 323 305 311 232 134 127 153 45 26 59 345 34 29 253 206 216 217 187 180
331 330 332 329 338 285 245 265 284 118 52 270 214 268 174 190 273 215 172 141 141 199 185 229 300 271 285 249 188 60 213 322 104 68 225 86 267 52 340 359 23 240 197 184 182
323 324 323 332 317 225 199 336 309 59 52 214 192 352 91 146 230 226 146 70 179 176 99 247 318 343 311 256 163 217 82 59 23 111 101 343 85 317 348 354 332 338 126 195 201
321 314 316 194 208 244 308 310 76 46 258 208 156 171 123 133 267 345 105 67 122 158 57 247 252 225 221 293 178 74 82 49 51 81 37 327 87 318 290 221 275 335 132 294 31
315 284 225 244 220 312 281 80 47 149 330 194 166 140 151 178 227 173 155 119 164 94 326 318 260 256 180 200 26 73 54 357 1 16 219 314 63 226 290 284 177 228 307 340 21
319 273 216 222 268 336 51 55 202 245 242 275 122 100 155 165 246 194 140 185 286 94 70 222 329 192 195 192 178 102 144 147 215 217 261 333 140 232 208 351 334 165 138 75 19
324 86 219 241 210 355 71 88 220 215 269 1 66 91 256 241 180 149 161 194 193 160 174 169 267 310 241 138 127 162 147 187 100 33 69 304 314 138 176 205 129 99 69 37 24
335 318 253 135 155 105 77 239 248 233 339 29 170 162 183 238 153 135 171 204 218 186 142 193 316 285 328 80 38 109 160 56 21 144 192 301 286 237 192 192 244 110 102 104 111
16 26 271 163 140 53 166 235 280 258 267 323 218 196 212 182 175 181 206 273 198 121 134 154 99 296 14 19 253 26 23 52 111 102 149 170 265 231 178 187 172 151 158 192 125
337 62 332 53 66 25 174 211 272 272 241 239 220 203 192 177 176 191 209 229 176 144 156 200 143 201 179 9 17 112 112 113 110 213 111 147 272 308 182 191 161 173 316 112 144
2 274 355 73 148 252 267 269 253 278 260 230 231 192 186 189 156 167 197 268 179 159 168 183 24 51 352 0 359 57 5 100 106 71 199 132 266 345 105 236 205 166 131 114 155
40 67 347 40 129 143 181 268 254 294 270 221 256 191 110 136 276 160 178 333 108 101 117 99 94 145 173 203 164 102 338 89 107 105 177 226 325 332 32 84 94 100 125 137 151
132 275 194 224 291 241 182 293 289 299 269 270 241 205 164 108 67 106 112 38 28 14 58 90 104 96 146 220 121 70 74 213 122 171 158 187 112 312 25 84 86 105 115 131 164
53 28 349 236 284 209 191 248 234 271 237 320 343 231 62 118 161 150 139 137 156 24 80 22 145 58 17 353 60 62 21 93 26 100 76 109 86 34 36 61 50 45 61 51 29
318 317 114 276 322 99 199 259 265 295 268 216 251 67 65 19 83 120 100 126 145 122 92 88 124 89 240 347 35 14 335 47 46 14 130 127 93 117 83 82 75 60 62 66 30